TimeCDT,TemperatureF,Dew PointF,Humidity,Sea Level PressureIn,VisibilityMPH,Wind Direction,Wind SpeedMPH,Gust SpeedMPH,PrecipitationIn,Events,Conditions,WindDirDegrees,DateUTC
12:54 AM,66.9,64.0,90,29.77,10.0,South,6.9,-,N/A,,Clear,180,2013-09-01 05:54:00
1:54 AM,66.0,64.0,93,29.76,10.0,SSW,6.9,-,N/A,,Clear,200,2013-09-01 06:54:00
2:54 AM,66.0,64.0,93,29.76,10.0,SE,3.5,-,N/A,,Clear,140,2013-09-01 07:54:00
3:54 AM,66.0,64.0,93,29.77,10.0,SW,5.8,-,N/A,,Partly Cloudy,220,2013-09-01 08:54:00
4:54 AM,66.9,64.9,93,29.75,10.0,Calm,Calm,-,0.01,,Scattered Clouds,0,2013-09-01 09:54:00
5:54 AM,64.9,64.0,97,29.75,8.0,South,8.1,-,N/A,,Mostly Cloudy,180,2013-09-01 10:54:00
6:35 AM,66.2,64.4,94,29.77,2.5,WSW,6.9,-,0.07,Rain,Light Rain,240,2013-09-01 11:35:00
6:41 AM,66.2,66.2,100,29.77,7.0,WSW,9.2,-,0.08,Rain,Light Rain,240,2013-09-01 11:41:00
6:54 AM,68.0,66.0,93,29.76,10.0,Variable,3.5,-,0.08,,Overcast,0,2013-09-01 11:54:00
7:01 AM,66.2,66.2,100,29.78,9.0,North,4.6,-,N/A,,Overcast,360,2013-09-01 12:01:00
7:10 AM,66.2,66.2,100,29.77,9.0,Calm,Calm,-,N/A,,Overcast,0,2013-09-01 12:10:00
7:23 AM,66.2,64.4,94,29.77,8.0,Calm,Calm,-,N/A,,Overcast,0,2013-09-01 12:23:00
7:54 AM,68.0,66.0,93,29.75,7.0,South,3.5,-,N/A,,Overcast,170,2013-09-01 12:54:00
8:47 AM,69.8,66.2,88,29.77,7.0,West,3.5,-,0.00,,Overcast,260,2013-09-01 13:47:00
8:54 AM,69.1,66.9,93,29.76,7.0,West,4.6,-,0.00,,Overcast,260,2013-09-01 13:54:00
9:04 AM,69.8,68.0,94,29.77,7.0,WSW,3.5,-,N/A,,Mostly Cloudy,250,2013-09-01 14:04:00
9:33 AM,71.6,66.2,83,29.78,10.0,NW,10.4,17.3,N/A,,Mostly Cloudy,310,2013-09-01 14:33:00
9:44 AM,73.4,66.2,78,29.78,10.0,WNW,11.5,-,N/A,,Mostly Cloudy,300,2013-09-01 14:44:00
9:54 AM,72.0,66.9,84,29.76,10.0,WNW,8.1,-,N/A,,Mostly Cloudy,300,2013-09-01 14:54:00
10:01 AM,71.6,66.2,83,29.78,10.0,WNW,8.1,-,N/A,,Mostly Cloudy,290,2013-09-01 15:01:00
10:54 AM,73.0,64.9,76,29.77,10.0,WNW,10.4,-,N/A,,Overcast,300,2013-09-01 15:54:00
11:14 AM,75.2,64.4,69,29.78,10.0,West,11.5,-,N/A,,Scattered Clouds,280,2013-09-01 16:14:00
11:54 AM,77.0,63.0,62,29.76,10.0,NW,10.4,-,N/A,,Scattered Clouds,310,2013-09-01 16:54:00
12:54 PM,78.1,60.1,54,29.77,10.0,NW,18.4,23.0,N/A,,Scattered Clouds,310,2013-09-01 17:54:00
1:54 PM,78.1,57.9,50,29.78,10.0,NNW,16.1,-,N/A,,Scattered Clouds,340,2013-09-01 18:54:00
2:54 PM,77.0,55.9,48,29.79,10.0,NW,19.6,-,N/A,,Clear,320,2013-09-01 19:54:00
3:54 PM,75.9,57.0,52,29.78,10.0,NNW,13.8,-,N/A,,Mostly Cloudy,330,2013-09-01 20:54:00
4:54 PM,75.0,57.0,53,29.79,10.0,WNW,13.8,20.7,N/A,,Mostly Cloudy,300,2013-09-01 21:54:00
5:54 PM,73.9,57.9,57,29.81,10.0,NW,11.5,-,N/A,,Overcast,310,2013-09-01 22:54:00
6:54 PM,72.0,57.9,61,29.81,10.0,NW,6.9,-,N/A,,Scattered Clouds,320,2013-09-01 23:54:00
7:54 PM,68.0,59.0,73,29.83,10.0,NW,6.9,-,N/A,,Scattered Clouds,320,2013-09-02 00:54:00
8:54 PM,68.0,59.0,73,29.85,10.0,NW,9.2,-,N/A,,Mostly Cloudy,320,2013-09-02 01:54:00
9:54 PM,66.9,57.9,73,29.86,10.0,NNW,13.8,-,N/A,,Scattered Clouds,330,2013-09-02 02:54:00
10:54 PM,66.0,57.9,75,29.87,10.0,NNW,12.7,-,N/A,,Overcast,340,2013-09-02 03:54:00
11:54 PM,64.9,57.9,78,29.89,10.0,NNW,10.4,-,N/A,,Overcast,330,2013-09-02 04:54:00